Location: ???? ???? ?????
(31.2680°N, 31.7283°E)
Time: 09:39:09
(UTC+00:00)

Cosmos 1371 Rocket - Pass Details

Date: 13 July 2020
Orbit: 753 x 790 km, 74.0° (Epoch: 08 August)

Event Time Altitude Azimuth Distance (km) Brightness Sun altitude
Rises 19:35:00 0° 347° (NNW) 3,257 8.3 -26.8°
Reaches altitude 10° 19:37:24 10° 351° (N) 2,332 7.3 -27.1°
Enters shadow 19:42:09 61° 41° (NE) 887 4.2 -27.7°
